Tracking 30995 objects as of 6-Jul-2025
HD Live streaming from Space Station
objects crossing your sky now

STARLINK-3917

Track STARLINK-3917 now!
10-day predictions
STARLINK-3917 is classified as:


NORAD ID: 52588
Int'l Code: 2022-051BE
Perigee: 546.2 km
Apogee: 547.5 km
Inclination: 53.2 °
Period: 95.4 minutes
Semi major axis: 6917 km
RCS: Unknown
Launch date: May 13, 2022
Source: United States (US)
Launch site: AIR FORCE WESTERN TEST RANGE (AFWTR)
Your satellite tracking list
Your tracking list is empty




NASA's NSSDC Master Catalog

Two Line Element Set (TLE):
1 52588U 22051BE  25186.31538604  .00001109  00000-0  87738-4 0  9998
2 52588  53.2167 149.6291 0000931  53.9571 306.1508 15.08838451174243
Source of the keplerian elements: AFSPC